| time (UTC) | temp C | wind direction | speed KPH | gust KPH | rain 1hr cm | rain 24hr cm | rain mn cm | humidity % | barometer mb |
| 20260510142805 | 24 | 256 | 3.2 | 4.8 | 0.00 | 0.00 | 0.00 | 74 | 1004.4 |
| 20260510142306 | 23 | 321 | 3.2 | 8.0 | 0.00 | 0.00 | 0.00 | 75 | 1004.3 |
| 20260510140804 | 23 | 227 | 1.6 | 4.8 | 0.00 | 0.00 | 0.00 | 78 | 1004.1 |
| 20260510135804 | 22 | 189 | 1.6 | 4.8 | 0.00 | 0.00 | 0.00 | 80 | 1004.1 |
| 20260510134303 | 21 | 353 | 1.6 | 8.0 | 0.00 | 0.00 | 0.00 | 83 | 1004.0 |
| 20260510133805 | 21 | 101 | 1.6 | 3.2 | 0.00 | 0.00 | 0.00 | 84 | 1004.0 |
| 20260510133304 | 21 | 44 | 1.6 | 4.8 | 0.00 | 0.00 | 0.00 | 84 | 1004.1 |
| 20260510131804 | 20 | 283 | 1.6 | 4.8 | 0.00 | 0.00 | 0.00 | 88 | 1003.9 |
| 20260510130804 | 20 | 287 | 1.6 | 4.8 | 0.00 | 0.00 | 0.00 | 90 | 1003.8 |
| 20260510130303 | 19 | 315 | 1.6 | 4.8 | 0.00 | 0.00 | 0.00 | 90 | 1003.8 |
| 20260510125804 | 19 | 219 | 1.6 | 9.7 | 0.00 | 0.00 | 0.00 | 91 | 1003.9 |
| 20260510125306 | 19 | 207 | 3.2 | 11.3 | 0.00 | 0.00 | 0.00 | 92 | 1003.9 |
| 20260510124803 | 18 | 204 | 8.0 | 14.5 | 0.00 | 0.00 | 0.00 | 92 | 1003.9 |
| 20260510122306 | 17 | 143 | 1.6 | 3.2 | 0.00 | 0.00 | 0.00 | 94 | 1003.6 |
| 20260510121804 | 17 | 108 | 1.6 | 4.8 | 0.00 | 0.00 | 0.00 | 95 | 1003.6 |
| 20260510115306 | 16 | 132 | 0.0 | 1.6 | 0.00 | 0.00 | 0.00 | 97 | 1003.6 |
| 20260510114803 | 15 | 139 | 0.0 | 1.6 | 0.00 | 0.00 | 0.00 | 97 | 1003.5 |
| 20260510114304 | 15 | 160 | 0.0 | 3.2 | 0.00 | 0.00 | 0.00 | 97 | 1003.4 |
| 20260510111304 | 15 | 132 | 1.6 | 3.2 | 0.00 | 0.00 | 0.00 | 96 | 1003.0 |
| 20260510110304 | 15 | 155 | 0.0 | 3.2 | 0.00 | 0.00 | 0.00 | 96 | 1003.0 |
| 20260510105803 | 15 | 131 | 1.6 | 3.2 | 0.00 | 0.00 | 0.00 | 96 | 1002.9 |
| 20260510104803 | 15 | 121 | 0.0 | 3.2 | 0.00 | 0.00 | 0.00 | 96 | 1002.6 |
| 20260510104305 | 15 | 208 | 1.6 | 3.2 | 0.00 | 0.00 | 0.00 | 96 | 1002.5 |
| 20260510103805 | 15 | 188 | 0.0 | 3.2 | 0.00 | 0.00 | 0.00 | 96 | 1002.6 |
| 20260510103304 | 15 | 153 | 1.6 | 3.2 | 0.00 | 0.00 | 0.00 | 96 | 1002.4 |
| 20260510102804 | 15 | 139 | 1.6 | 4.8 | 0.00 | 0.00 | 0.00 | 96 | 1002.4 |
| 20260510102306 | 15 | 109 | 0.0 | 3.2 | 0.00 | 0.00 | 0.00 | 96 | 1002.3 |
| 20260510101804 | 15 | 119 | 1.6 | 3.2 | 0.00 | 0.00 | 0.00 | 96 | 1002.3 |
| 20260510101305 | 15 | 124 | 0.0 | 3.2 | 0.00 | 0.00 | 0.00 | 96 | 1002.2 |
| 20260510095306 | 15 | 106 | 0.0 | 1.6 | 0.00 | 0.00 | 0.00 | 94 | 1002.1 |
| 20260510094804 | 15 | 82 | 0.0 | 3.2 | 0.00 | 0.00 | 0.00 | 94 | 1002.0 |
| 20260510094304 | 15 | 122 | 0.0 | 3.2 | 0.00 | 0.00 | 0.00 | 94 | 1002.0 |
| 20260510093304 | 15 | 171 | 0.0 | 1.6 | 0.00 | 0.00 | 0.00 | 94 | 1001.9 |
| 20260510092803 | 15 | 249 | 0.0 | 1.6 | 0.00 | 0.00 | 0.00 | 94 | 1001.8 |
| 20260510092306 | 15 | 145 | 0.0 | 3.2 | 0.00 | 0.00 | 0.00 | 93 | 1001.7 |
| 20260510091804 | 15 | 272 | 0.0 | 3.2 | 0.00 | 0.00 | 0.00 | 93 | 1001.7 |
| 20260510091304 | 15 | 255 | 0.0 | 1.6 | 0.00 | 0.00 | 0.00 | 93 | 1001.5 |
| 20260510090304 | 15 | 323 | 0.0 | 3.2 | 0.00 | 0.00 | 0.00 | 91 | 1001.4 |
| 20260510085804 | 15 | 247 | 0.0 | 3.2 | 0.00 | 0.00 | 0.00 | 92 | 1001.4 |
| 20260510085306 | 15 | 91 | 0.0 | 3.2 | 0.00 | 0.00 | 0.00 | 91 | 1001.3 |
| 20260510084304 | 15 | 108 | 0.0 | 3.2 | 0.00 | 0.00 | 0.00 | 91 | 1001.3 |
| 20260510083804 | 15 | 91 | 0.0 | 3.2 | 0.00 | 0.00 | 0.00 | 91 | 1001.4 |
| 20260510083303 | 15 | 14 | 0.0 | 1.6 | 0.00 | 0.00 | 0.00 | 90 | 1001.4 |
| 20260510082804 | 15 | 227 | 0.0 | 1.6 | 0.00 | 0.00 | 0.00 | 89 | 1001.4 |
| 20260510082307 | 15 | 86 | 0.0 | 1.6 | 0.00 | 0.00 | 0.00 | 89 | 1001.4 |
| 20260510081305 | 15 | 88 | 0.0 | 1.6 | 0.00 | 0.00 | 0.00 | 88 | 1001.3 |
| 20260510080804 | 15 | 162 | 0.0 | 1.6 | 0.00 | 0.00 | 0.00 | 86 | 1001.2 |
| 20260510080304 | 16 | 104 | 0.0 | 1.6 | 0.00 | 0.00 | 0.00 | 86 | 1001.2 |
| 20260510075306 | 16 | 232 | 0.0 | 1.6 | 0.00 | 0.00 | 0.00 | 85 | 1001.1 |
| 20260510074304 | 16 | 137 | 0.0 | 3.2 | 0.00 | 0.00 | 0.00 | 84 | 1001.2 |
| 20260510073804 | 16 | 99 | 1.6 | 3.2 | 0.00 | 0.00 | 0.00 | 84 | 1001.2 |
| 20260510073305 | 16 | 128 | 0.0 | 1.6 | 0.00 | 0.00 | 0.00 | 83 | 1001.3 |
| 20260510072806 | 16 | 103 | 1.6 | 3.2 | 0.00 | 0.00 | 0.00 | 82 | 1001.3 |
| 20260510072306 | 16 | 120 | 0.0 | 3.2 | 0.00 | 0.00 | 0.00 | 81 | 1001.2 |
| 20260510071304 | 16 | 117 | 0.0 | 3.2 | 0.00 | 0.00 | 0.00 | 81 | 1001.2 |
| 20260510065306 | 16 | 98 | 0.0 | 3.2 | 0.00 | 0.00 | 0.00 | 78 | 1001.3 |
| 20260510064304 | 15 | 137 | 0.0 | 1.6 | 0.00 | 0.00 | 0.00 | 78 | 1001.2 |
| 20260510060803 | 16 | 210 | 0.0 | 3.2 | 0.00 | 0.00 | 0.00 | 79 | 1000.7 |
| 20260510054803 | 16 | 93 | 0.0 | 1.6 | 0.00 | 0.00 | 0.00 | 77 | 1000.7 |
| 20260510054304 | 16 | 69 | 0.0 | 1.6 | 0.00 | 0.00 | 0.00 | 77 | 1000.8 |
| 20260510052804 | 16 | 193 | 1.6 | 3.2 | 0.00 | 0.00 | 0.00 | 79 | 1000.8 |
| 20260510052306 | 16 | 51 | 0.0 | 1.6 | 0.00 | 0.00 | 0.00 | 76 | 1000.7 |
| 20260510051304 | 16 | 10 | 1.6 | 3.2 | 0.00 | 0.00 | 0.00 | 75 | 1000.7 |
| 20260510050804 | 16 | 20 | 1.6 | 3.2 | 0.00 | 0.00 | 0.00 | 76 | 1000.6 |
| 20260510050304 | 16 | 113 | 1.6 | 3.2 | 0.00 | 0.00 | 0.00 | 76 | 1000.6 |
| 20260510045804 | 16 | 297 | 0.0 | 3.2 | 0.00 | 0.00 | 0.00 | 74 | 1000.6 |
| 20260510045306 | 17 | 210 | 0.0 | 3.2 | 0.00 | 0.00 | 0.00 | 74 | 1000.6 |
| 20260510044304 | 17 | 91 | 0.0 | 1.6 | 0.00 | 0.00 | 0.00 | 76 | 1000.6 |
| 20260510043804 | 17 | 35 | 0.0 | 1.6 | 0.00 | 0.00 | 0.00 | 75 | 1000.6 |
| 20260510042804 | 17 | 249 | 0.0 | 1.6 | 0.00 | 0.00 | 0.00 | 74 | 1000.6 |
| 20260510040805 | 17 | 116 | 0.0 | 1.6 | 0.00 | 0.00 | 0.00 | 74 | 1000.7 |
| 20260510035306 | 17 | 12 | 0.0 | 1.6 | 0.00 | 0.00 | 0.00 | 74 | 1000.8 |
| 20260510034302 | 18 | 124 | 1.6 | 3.2 | 0.00 | 0.00 | 0.00 | 72 | 1000.7 |
| 20260510033303 | 18 | 90 | 1.6 | 4.8 | 0.00 | 0.00 | 0.00 | 70 | 1000.8 |
| 20260510032803 | 18 | 169 | 1.6 | 8.0 | 0.00 | 0.00 | 0.00 | 69 | 1000.8 |
| 20260510031302 | 18 | 104 | 0.0 | 3.2 | 0.00 | 0.00 | 0.00 | 70 | 1000.7 |
| 20260510030303 | 18 | 272 | 1.6 | 3.2 | 0.00 | 0.00 | 0.00 | 68 | 1000.7 |
| 20260510025803 | 18 | 176 | 4.8 | 4.8 | 0.00 | 0.00 | 0.00 | 68 | 1000.7 |
| 20260510024802 | 18 | 130 | 0.0 | 4.8 | 0.00 | 0.00 | 0.00 | 66 | 1000.6 |
| 20260510024302 | 18 | 21 | 1.6 | 4.8 | 0.00 | 0.00 | 0.00 | 63 | 1000.5 |
| 20260510023803 | 18 | 357 | 0.0 | 4.8 | 0.00 | 0.00 | 0.00 | 64 | 1000.5 |
| 20260510023302 | 19 | 318 | 0.0 | 1.6 | 0.00 | 0.00 | 0.00 | 63 | 1000.5 |
| 20260510021803 | 20 | 4 | 4.8 | 9.7 | 0.00 | 0.00 | 0.00 | 62 | 1000.3 |
| 20260510020303 | 20 | 334 | 1.6 | 8.0 | 0.00 | 0.00 | 0.00 | 57 | 1000.0 |
| 20260510015803 | 20 | 0 | 1.6 | 3.2 | 0.00 | 0.00 | 0.00 | 56 | 1000.0 |
| 20260510015306 | 20 | 46 | 1.6 | 1.6 | 0.00 | 0.00 | 0.00 | 56 | 999.9 |
| 20260510014802 | 20 | 44 | 1.6 | 1.6 | 0.00 | 0.00 | 0.00 | 56 | 999.8 |
| 20260510014303 | 21 | 44 | 1.6 | 1.6 | 0.00 | 0.00 | 0.00 | 56 | 999.7 |
| 20260510013303 | 21 | 45 | 1.6 | 4.8 | 0.00 | 0.00 | 0.00 | 58 | 999.6 |
| 20260510011803 | 21 | 43 | 1.6 | 4.8 | 0.00 | 0.00 | 0.00 | 53 | 999.4 |
| 20260510011303 | 22 | 11 | 1.6 | 3.2 | 0.00 | 0.00 | 0.00 | 53 | 999.3 |
| 20260510010802 | 22 | 275 | 1.6 | 4.8 | 0.00 | 0.00 | 0.00 | 52 | 999.2 |
| 20260510005802 | 22 | 221 | 1.6 | 8.0 | 0.00 | 0.00 | 0.00 | 51 | 999.1 |
| 20260510005306 | 22 | 247 | 1.6 | 4.8 | 0.00 | 0.00 | 0.00 | 49 | 999.0 |
| 20260510004803 | 23 | 306 | 1.6 | 4.8 | 0.00 | 0.00 | 0.00 | 48 | 998.9 |
| 20260510003803 | 23 | 323 | 1.6 | 4.8 | 0.00 | 0.00 | 0.00 | 47 | 998.8 |
| 20260510002803 | 23 | 282 | 1.6 | 3.2 | 0.00 | 0.00 | 0.00 | 45 | 998.7 |
| 20260510002306 | 24 | 284 | 1.6 | 3.2 | 0.00 | 0.00 | 0.00 | 44 | 998.6 |
| 20260510001303 | 24 | 298 | 1.6 | 3.2 | 0.00 | 0.00 | 0.00 | 43 | 998.6 |
| 20260510000304 | 25 | 173 | 0.0 | 1.6 | 0.00 | 0.00 | 0.00 | 42 | 998.4 |
| 20260509232803 | 27 | 316 | 1.6 | 4.8 | 0.00 | 0.00 | 0.00 | 37 | 998.1 |
| 20260509232306 | 27 | 316 | 1.6 | 4.8 | 0.00 | 0.00 | 0.00 | 37 | 998.1 |
| 20260509231304 | 27 | 317 | 4.8 | 9.7 | 0.00 | 0.00 | 0.00 | 34 | 998.1 |
| 20260509230302 | 28 | 135 | 3.2 | 11.3 | 0.00 | 0.00 | 0.00 | 32 | 998.1 |
| 20260509225803 | 28 | 303 | 3.2 | 16.1 | 0.00 | 0.00 | 0.00 | 34 | 998.1 |
| 20260509225305 | 28 | 314 | 3.2 | 16.1 | 0.00 | 0.00 | 0.00 | 32 | 998.0 |
| 20260509223304 | 29 | 284 | 1.6 | 9.7 | 0.00 | 0.00 | 0.00 | 32 | 997.9 |
| 20260509222803 | 29 | 313 | 6.4 | 16.1 | 0.00 | 0.00 | 0.00 | 31 | 997.9 |
| 20260509222306 | 29 | 345 | 4.8 | 11.3 | 0.00 | 0.00 | 0.00 | 32 | 997.9 |
| 20260509221804 | 29 | 339 | 3.2 | 19.3 | 0.00 | 0.00 | 0.00 | 32 | 998.0 |
| 20260509221303 | 29 | 301 | 3.2 | 11.3 | 0.00 | 0.00 | 0.00 | 32 | 998.1 |
| 20260509220803 | 29 | 315 | 4.8 | 11.3 | 0.00 | 0.00 | 0.00 | 31 | 998.1 |
| 20260509213303 | 28 | 280 | 3.2 | 11.3 | 0.00 | 0.00 | 0.00 | 34 | 998.1 |
| 20260509210803 | 28 | 317 | 8.0 | 11.3 | 0.00 | 0.00 | 0.00 | 32 | 998.3 |
| 20260509210303 | 28 | 317 | 4.8 | 11.3 | 0.00 | 0.00 | 0.00 | 35 | 998.3 |
| 20260509204804 | 30 | 316 | 6.4 | 14.5 | 0.00 | 0.00 | 0.00 | 34 | 998.4 |
| 20260509204303 | 30 | 346 | 3.2 | 4.8 | 0.00 | 0.00 | 0.00 | 31 | 998.4 |
| 20260509203804 | 30 | 319 | 3.2 | 4.8 | 0.00 | 0.00 | 0.00 | 32 | 998.4 |
| 20260509202802 | 30 | 315 | 1.6 | 4.8 | 0.00 | 0.00 | 0.00 | 33 | 998.4 |
| 20260509195803 | 29 | 109 | 4.8 | 9.7 | 0.00 | 0.00 | 0.00 | 33 | 998.6 |
| 20260509194804 | 28 | 317 | 6.4 | 11.3 | 0.00 | 0.00 | 0.00 | 34 | 998.7 |
| 20260509193303 | 30 | 318 | 6.4 | 11.3 | 0.00 | 0.00 | 0.00 | 34 | 998.8 |
| 20260509192803 | 29 | 131 | 4.8 | 11.3 | 0.00 | 0.00 | 0.00 | 37 | 998.7 |
| 20260509192306 | 29 | 115 | 4.8 | 9.7 | 0.00 | 0.00 | 0.00 | 37 | 998.7 |
| 20260509191803 | 28 | 129 | 3.2 | 12.9 | 0.00 | 0.00 | 0.00 | 37 | 998.8 |
| 20260509191302 | 28 | 184 | 3.2 | 20.9 | 0.00 | 0.00 | 0.00 | 39 | 998.8 |
| 20260509190303 | 28 | 123 | 3.2 | 11.3 | 0.00 | 0.00 | 0.00 | 37 | 998.9 |
| 20260509185306 | 27 | 299 | 6.4 | 19.3 | 0.00 | 0.00 | 0.00 | 42 | 998.9 |
| 20260509183303 | 28 | 127 | 8.0 | 22.5 | 0.00 | 0.00 | 0.00 | 38 | 999.1 |
| 20260509182804 | 27 | 292 | 3.2 | 12.9 | 0.00 | 0.00 | 0.00 | 41 | 999.0 |
| 20260509182306 | 28 | 331 | 4.8 | 12.9 | 0.00 | 0.00 | 0.00 | 42 | 999.1 |
| 20260509181303 | 27 | 317 | 3.2 | 9.7 | 0.00 | 0.00 | 0.00 | 43 | 999.1 |
| 20260509180803 | 27 | 315 | 4.8 | 11.3 | 0.00 | 0.00 | 0.00 | 41 | 999.3 |
| 20260509180304 | 26 | 130 | 4.8 | 9.7 | 0.00 | 0.00 | 0.00 | 44 | 999.3 |
| 20260509174803 | 26 | 316 | 4.8 | 12.9 | 0.00 | 0.00 | 0.00 | 43 | 999.3 |
| 20260509174304 | 26 | 319 | 8.0 | 11.3 | 0.00 | 0.00 | 0.00 | 45 | 999.4 |
| 20260509173803 | 26 | 316 | 4.8 | 8.0 | 0.00 | 0.00 | 0.00 | 45 | 999.4 |
| 20260509173304 | 27 | 317 | 3.2 | 14.5 | 0.00 | 0.00 | 0.00 | 45 | 999.4 |
| 20260509172803 | 27 | 333 | 4.8 | 14.5 | 0.00 | 0.00 | 0.00 | 42 | 999.4 |
| 20260509171803 | 26 | 120 | 4.8 | 12.9 | 0.00 | 0.00 | 0.00 | 48 | 999.3 |
| 20260509170803 | 26 | 232 | 3.2 | 11.3 | 0.00 | 0.00 | 0.00 | 46 | 999.4 |
| 20260509170302 | 25 | 107 | 3.2 | 11.3 | 0.00 | 0.00 | 0.00 | 51 | 999.4 |
| 20260509165306 | 25 | 297 | 4.8 | 11.3 | 0.00 | 0.00 | 0.00 | 52 | 999.4 |
| 20260509163302 | 25 | 17 | 3.2 | 12.9 | 0.00 | 0.00 | 0.00 | 48 | 999.5 |
| 20260509162803 | 25 | 264 | 3.2 | 9.7 | 0.00 | 0.00 | 0.00 | 52 | 999.5 |
| 20260509162307 | 25 | 321 | 3.2 | 8.0 | 0.00 | 0.00 | 0.00 | 51 | 999.4 |
| 20260509161803 | 25 | 111 | 1.6 | 8.0 | 0.00 | 0.00 | 0.00 | 51 | 999.4 |
| 20260509160803 | 25 | 79 | 1.6 | 9.7 | 0.00 | 0.00 | 0.00 | 54 | 999.3 |
| 20260509160303 | 24 | 315 | 3.2 | 9.7 | 0.00 | 0.00 | 0.00 | 55 | 999.2 |
| 20260509155803 | 24 | 0 | 4.8 | 9.7 | 0.00 | 0.00 | 0.00 | 55 | 999.2 |
| 20260509154303 | 24 | 226 | 1.6 | 4.8 | 0.00 | 0.00 | 0.00 | 57 | 999.1 |
| 20260509153803 | 23 | 229 | 3.2 | 8.0 | 0.00 | 0.00 | 0.00 | 57 | 999.0 |
| 20260509152803 | 23 | 308 | 3.2 | 9.7 | 0.00 | 0.00 | 0.00 | 62 | 999.0 |
| 20260509152305 | 23 | 313 | 3.2 | 11.3 | 0.00 | 0.00 | 0.00 | 61 | 999.0 |